Home > Weather > St. Paul > Past weeks

Flag for U.S.A. Weather for the Past 2 Weeks in St. Paul, Minnesota, U.S.A.

Now
17 °F

Overcast.


Feels Like: 17 °F
Forecast: -3 / 15 °F
Wind: No wind

Location: St. Paul Downtown Holman Field

Current Time: Feb 11, 2016 at 3:28:07 PM

Latest Report: Feb 11, 2016 at 2:53 PM


Visibility: 10 mi

Pressure: 30.29 "Hg

Humidity: 45%

Dew point: -1 °F

Location of St. PaulLocation

Historic Weather in St. Paul — Graph

°F

St. Paul Temperature Yesterday

Maximum temperature yesterday: 11 °F (at 2:53 PM)
Minimum temperature yesterday: 3 °F (at 5:53 AM)
Average temperature yesterday: 7 °F

High & Low Weather Summary for the Past Weeks

 TemperatureHumidityPressure
High41 °F (Jan 30, 1:53 PM)96% (Jan 31, 12:53 AM)30.40 "Hg (Jan 31, 12:53 AM)
Low2 °F (Feb 11, 7:53 AM)45% (Feb 9, 3:53 PM)29.52 "Hg (Jan 30, 3:53 PM)
Average23 °F75%29.95 "Hg
* Reported Jan 27 1:53 PM — Feb 11 1:53 PM, St. Paul, Weather by CustomWeather, © 2016

Note: Actual official high and low records may vary slightly from our data, if they occured in-between our weather recording intervals... More about our weather records

Advertising

St. Paul Weather History for the Previous 24 Hours

 ConditionsComfort  
Time TempWeatherWind HumidityBarometerVisibility
1:53 PM
Thu, Feb 11
16 °FOvercast.7 mph45%30.30 "Hg10 mi
12:53 PM15 °FOvercast.6 mph46%30.34 "Hg10 mi
11:53 AM14 °FOvercast.5 mph49%30.37 "Hg10 mi
10:53 AM13 °FSunny.No wind54%30.38 "Hg10 mi
9:53 AM10 °FSunny.No wind58%30.39 "Hg10 mi
8:53 AM5 °FSunny.No wind69%30.40 "Hg10 mi
7:53 AM2 °FSunny.No wind80%30.40 "Hg9 mi
6:53 AM3 °FClear.No wind69%30.40 "Hg10 mi
5:53 AM3 °FClear.No wind69%30.37 "Hg10 mi
4:53 AM3 °FClear.3 mph69%30.37 "Hg10 mi
3:53 AM3 °FClear.3 mph69%30.36 "Hg10 mi
2:53 AM5 °FClear.No wind69%30.35 "Hg10 mi
1:53 AM7 °FClear.7 mph60%30.34 "Hg10 mi
12:53 AM8 °FPassing clouds.3 mph60%30.34 "Hg10 mi
11:53 PM
Wed, Feb 10
8 °FClear.7 mph57%30.34 "Hg10 mi
10:53 PM9 °FPassing clouds.8 mph55%30.32 "Hg10 mi
9:53 PM10 °FOvercast.5 mph55%30.32 "Hg10 mi
8:53 PM10 °FOvercast.6 mph58%30.31 "Hg10 mi
7:53 PM11 °FOvercast.7 mph56%30.29 "Hg10 mi
6:53 PM11 °FOvercast.7 mph53%30.27 "Hg10 mi
5:53 PM11 °FOvercast.7 mph51%30.24 "Hg10 mi
4:53 PM11 °FOvercast.7 mph51%30.21 "Hg10 mi
3:53 PM11 °FSunny.9 mph48%30.19 "Hg10 mi
Weather by CustomWeather, © 2016

See weather overviewHow to use our weather pages